#timestamp,LO_Frequency,Hit,StdDev 
1509994815.6,286046997.7,N
1509994835.4,286046995.0,N
1509994855.3,286046996.4,N
1509994875.1,286046996.0,N
1509994876.0,286046996.0,N
1509994895.8,286046996.0,N
1509994915.7,286046995.3,N
1509994935.5,286046995.5,N
1509994955.3,286046997.7,N
1509994975.2,286046997.7,N
1509994995.0,286046997.5,N
1509994995.9,286046997.5,N
1509995015.8,286046997.1,N
1509995035.6,286046997.6,N
1509995055.4,286046997.3,N
1509995075.3,286046995.3,N
1509995095.1,286046993.7,Y
1509995115.9,286046997.1,P
1509995135.7,286046997.3,P
1509995155.5,286046996.9,P
1509995175.4,286046995.4,Y
1509995195.2,286046998.5,P
1509995215.0,286046998.5,N
1509995215.9,286046998.5,N
1509995235.8,286046999.0,N
1509995255.6,286046998.1,Y
1509995275.5,286047001.0,P
1509995295.3,286046998.1,N
1509995315.1,286046998.6,N
1509995335.9,286046998.2,N
1509995355.7,286047000.9,N
1509995375.5,286047001.0,N
1509995395.4,286047000.9,N
1509995415.2,286047001.2,N
1509995435.1,286047001.1,N
1509995436.0,286047001.1,N
1509995455.8,286046997.4,N
1509995475.6,286046999.1,N
1509995495.5,286046999.6,N
1509995515.3,286046999.5,N
1509995535.1,286046998.7,N
1509995555.9,286046999.3,N
1509995575.7,286046999.4,N
1509995595.6,286046997.9,N
1509995615.4,286046998.0,N
1509995635.2,286046997.6,N
1509995655.1,286046995.6,Y
1509995656.0,286046995.6,P
1509995675.8,286046996.7,N
1509995695.6,286046996.9,N
1509995715.5,286046997.6,N
1509995735.3,286046997.8,N
1509995755.2,286046996.5,Y
1509995775.9,286047000.5,P
1509995795.7,286047000.9,N
1509995815.6,286047000.5,N
1509995835.4,286047002.8,N
1509995855.2,286047000.2,N
1509995875.1,286047000.6,N
1509995876.0,286047000.6,N
1509995895.8,286047001.1,N
1509995915.7,286047000.8,N
1509995935.5,286046999.0,N
1509995955.3,286046999.0,N
1509995975.2,286046998.3,N
1509995995.0,286046998.4,N
1509995995.9,286046998.4,N
1509996015.7,286046998.1,N
1509996035.6,286046999.2,N
1509996055.4,286047001.0,N
1509996075.3,286047001.6,N
1509996095.1,286047002.3,N
1509996096.0,286047002.3,N
1509996115.8,286047000.3,N
1509996135.7,286047000.4,N
1509996155.5,286047002.8,N
1509996175.3,286047002.3,N
1509996195.2,286047000.6,N
1509996215.0,286046998.1,N
1509996215.9,286046998.1,N
1509996235.8,286047001.1,N
1509996255.6,286047001.3,N
1509996275.4,286047002.1,N
1509996295.3,286047002.1,N
1509996315.1,286046999.8,N
1509996335.8,286046999.8,N
1509996355.7,286047002.2,N
1509996375.5,286047000.6,N
1509996395.4,286046998.9,N
1509996415.2,286046999.4,N
1509996435.0,286046999.4,N
1509996435.9,286046999.4,N
1509996455.8,286046997.0,N
1509996475.6,286046998.9,N
1509996495.4,286046996.5,N
1509996515.3,286046996.8,N
1509996535.1,286046999.6,N
1509996555.9,286046999.2,N
1509996575.7,286046996.5,N
1509996595.5,286046997.3,N
1509996615.4,286046995.4,N
1509996635.2,286046996.9,N
1509996655.0,286046995.1,N
1509996655.9,286046995.1,N
1509996675.8,286046996.2,N
1509996695.6,286046997.6,N
1509996715.5,286046998.0,N
1509996735.3,286046996.9,N
1509996755.1,286046999.1,N
1509996775.9,286046999.1,N
1509996795.7,286046996.5,N
1509996815.5,286046997.0,N
1509996835.4,286046999.2,N
1509996855.2,286046999.1,N
1509996875.1,286046999.3,N
1509996876.0,286046999.3,N
1509996895.8,286046996.6,N
1509996915.6,286046999.6,N
1509996935.5,286046997.1,N
1509996955.3,286046996.6,N
1509996975.1,286046998.9,N
1509996995.9,286047001.2,N
1509997015.7,286046998.6,N
1509997035.6,286046998.4,N
1509997055.4,286046999.2,N
1509997075.2,286046998.8,N
1509997095.1,286046999.6,N
1509997096.0,286046999.6,N
1509997115.8,286047011.9,Y
1509997135.7,286046998.5,P
1509997155.5,286047001.2,P
1509997175.3,286047000.3,N
1509997195.2,286047000.4,N
1509997215.9,286047000.9,N
1509997235.7,286047000.9,N
1509997255.6,286047000.4,N
1509997275.4,286047002.7,N
1509997295.3,286047002.6,N
1509997315.1,286047002.5,N
1509997316.0,286047002.5,N
1509997335.8,286047001.4,N
1509997355.7,286047001.8,N
1509997375.5,286047004.0,N
1509997395.4,286047001.7,N
1509997415.2,286047003.9,N
1509997435.0,286047001.8,N
1509997435.9,286047001.8,N
1509997455.8,286047003.1,N
1509997475.6,286047004.0,N
1509997495.4,286047003.8,N
1509997515.3,286047005.9,Y
1509997535.1,286047004.1,P
1509997555.9,286047003.9,P
1509997575.7,286047004.0,P
1509997595.5,286047001.6,N
1509997615.4,286047001.6,N
1509997635.2,286046999.8,N
1509997655.0,286047002.6,N
1509997655.9,286047002.6,N
1509997675.8,286047004.3,Y
1509997695.6,286047002.5,P
1509997715.5,286047000.1,N
1509997735.3,286047002.4,N
1509997755.1,286047002.8,N
1509997775.9,286047000.9,N
1509997795.7,286046998.6,N
1509997815.6,286046999.5,N
1509997835.4,286046998.8,N
1509997855.2,286046998.3,N
1509997875.1,286046998.8,N
1509997876.0,286046998.8,N
1509997895.8,286046999.2,N
1509997915.7,286046999.1,N
1509997935.5,286047000.0,N
1509997955.3,286047000.6,N
1509997975.2,286047001.2,N
1509997995.0,286046998.6,N
1509997995.9,286046998.6,N
1509998015.7,286047001.0,N
1509998035.6,286047000.1,N
1509998055.4,286047002.3,N
1509998075.3,286046999.8,N
1509998095.1,286047002.3,N
1509998096.0,286047002.3,N
1509998115.8,286047002.7,N
1509998135.7,286046999.7,N
1509998155.5,286047000.5,N
1509998175.3,286047001.8,N
1509998195.2,286047002.7,N
1509998215.0,286046999.7,N
1509998215.9,286046999.7,N
1509998235.8,286047002.8,N
1509998255.6,286047002.3,N
1509998275.4,286046999.8,N
1509998295.3,286046999.8,N
1509998315.1,286047000.9,N
1509998335.9,286047000.4,N
1509998355.7,286047000.6,N
1509998375.5,286047000.5,N
1509998395.4,286047002.3,N
